Regional Weather Roundup
Issued by NWS

Home | Current Version | Previous Version | Text Only | Print | Product List | Glossary Off
Versions: 1 2 3 4 5 6 7 8 9 10 11 12 13 14 15 16 17 18 19 20 21 22 23 24 25 26 27 28 29 30 31 32 33 34 35 36 37 38 39 40 41 42 43 44 45 46 47 48 49 50

807
ASUS45 KTFX 230410
RWRMT
MONTANA REGIONAL WEATHER ROUNDUP
NATIONAL WEATHER SERVICE GREAT FALLS MT
1000 PM MDT FRI SEP 22 2017

NOTE: "FAIR" INDICATES FEW OR NO CLOUDS BELOW 12000 FEET WITH NO
SIGNIFICANT WEATHER AND/OR OBSTRUCTIONS TO VISIBILITY.

MTZ001>007-043-230500-
WEST OF THE DIVIDE

CITY           SKY/WX    TMP DP  RH WIND       PRES   REMARKS
MISSOULA       CLEAR     36  34  92 MISG      30.05
BUTTE          CLOUDY    34  32  92 S5        30.03R
MULLAN PASS    CLOUDY    32  29  88 SE6       30.02  WCI  26
ANACONDA         N/A     34  28  80 CALM      30.04R
DEER LODGE       N/A     34  28  80 W6        30.06R WCI  29
EUREKA           N/A     48  32  53 CALM      30.03S
HAMILTON         N/A     41  36  81 CALM      30.04R
LIBBY            N/A     46  39  76 CALM      30.02S
PLAINS           N/A     45  36  70 CALM      30.04
$$

MTZ008-052>055-230500-
SOUTHWEST MONTANA

CITY           SKY/WX    TMP DP  RH WIND       PRES   REMARKS
BOZEMAN        CLOUDY    40  33  76 W5        30.05
DILLON         CLOUDY    36  32  85 NE10      30.02  WCI  28
W YELLOWSTONE  CLOUDY    34  34 100 MISG      29.99F
ENNIS          CLOUDY    36  34  93 N8        30.07R WCI  29
THREE FORKS      N/A     39  35  85 NW3       30.04
TWIN BRIDGES     N/A     36  30  79 N1        30.00R
$$

MTZ009-010-012-014-046-048-049-054-230500-
EAST SLOPES AND CENTRAL MONTANA

CITY           SKY/WX    TMP DP  RH WIND       PRES   REMARKS
CUT BANK       CLOUDY    36  34  92 CALM      30.07F
GREAT FALLS    CLOUDY    36  34  92 NW3       30.09R
MALMSTROM AFB  CLOUDY    38  36  94 CALM      30.10
HELENA         CLOUDY    38  35  89 W3        30.07
BOWMANS CRNR   MOCLDY    32  32 100 MISG      30.06R
CHOTEAU          N/A     34  34 100 CALM      30.10R
FAIRFIELD      CLOUDY    33  32  96 MISG      30.08R
POWER          CLOUDY    35  34  97 NW5       30.08R
RAYNESFORD     CLOUDY    37  36  96 S6        30.08R
ULM            DRIZZLE   35  36 100 NW5       30.09R
$$

MTZ011-013-016-021-045-047-050-051-230500-
NORTH CENTRAL MONTANA

CITY           SKY/WX    TMP DP  RH WIND       PRES   REMARKS
HAVRE          CLOUDY    44  38  79 CALM      30.08
LEWISTOWN      CLOUDY    37  36  96 E5        30.08
N BAR RANCH    MIX PCPN  34  34 100 SW5       30.12R
CHINOOK          N/A     45  37  76 CALM      30.08S
DENTON           N/A     39  37  94 CALM      30.06R
GEYSER         CLOUDY    37  37  99 NE3       30.08R
JUDITH GAP     LGT RAIN  35  34  95 CALM      30.07R
WINIFRED       CLOUDY    39  37  91 SE8       30.08S
$$

MTZ017>020-022>027-061-062-230500-
NORTHEAST MONTANA

CITY           SKY/WX    TMP DP  RH WIND       PRES   REMARKS
GLASGOW        CLOUDY    45  41  86 CALM      30.08
JORDAN           N/A     44  39  82 SE3       30.08
SIDNEY         CLOUDY    43  39  86 NW8       30.08
WOLF POINT     CLOUDY    45  41  86 N6        30.08
MALTA          CLOUDY    45  41  87 CALM      30.09S
SCOBEY           N/A     34  28  79 CALM      30.07
$$

MTZ028>42-056>058-230500-
SOUTHCENTRAL AND SOUTHEAST MONTANA

CITY           SKY/WX    TMP DP  RH WIND       PRES   REMARKS
BAKER          CLOUDY    43  36  76 NW9       30.04
BILLINGS       LGT RAIN  40  39  97 NE9       30.06F
LIVINGSTON     CLOUDY    36  34  92 E10       30.05R WCI  28
MILES CITY     CLOUDY    45  37  73 N6        30.07
BIG TIMBER     FOG       34  34 100 N6        30.09S VSB 1/4 WCI  29
EKALAKA          N/A     41  34  76 N3        30.01
HARLOWTON      CLOUDY    35  35  98 MISG      30.07R
LAUREL           N/A     41  39  93 NE9       30.08S
$$

REGIONAL REPORTS...DAKOTAS

CITY           SKY/WX    TMP DP  RH WIND       PRES   REMARKS
WILLISTON      CLOUDY    44  42  93 NW9       30.05
MINOT          CLOUDY    49  45  86 NW13      29.98F
BEACH          CLOUDY    43  41  93 N12       30.06F
CROSBY           N/A     43  43 100 NW6       30.05S
TIOGA          CLOUDY    43  43 100 N9        30.05R
WATFORD CITY   CLOUDY    45  43  93 NW7       30.06R
BISMARCK       CLOUDY    50  45  83 N14G24    29.96R
GRAND FORKS    MOCLDY    55  52  89 N23G31    29.76
FARGO          CLOUDY    60  54  80 W15       29.75
BUFFALO SD       N/A     44  41  89 N9        29.95
RAPID CITY     CLOUDY    48  36  61 N18       30.02R
$$

REGIONAL REPORTS...WYOMING/IDAHO/WASHINGTON

CITY           SKY/WX    TMP DP  RH WIND       PRES   REMARKS
GILLETTE       CLOUDY    44  35  70 NE13      30.01
SHERIDAN       RAIN      42  39  89 NE3       30.06
BUFFALO WY     LGT RAIN  40  37  89 N6        30.05R
CODY           LGT RAIN  35  33  92 CALM      30.05R
IDAHO FALLS    CLOUDY    40  35  83 SW6       30.00
SALMON           N/A     45  36  70 S5        29.99
BOISE          PTCLDY    45  40  82 CALM      30.00
SPOKANE        MOCLDY    52  38  58 SE3       30.01
$$

REGIONAL REPORTS...ALBERTA

CITY           SKY/WX    TMP DP  RH WIND       PRES   REMARKS
EDMONTON       PTCLDY    39  39 100 SE3       30.07F
CALGARY        CLOUDY    39  34  81 SE8       30.05F
LETHBRIDGE     MOCLDY    41  34  75 S5        30.07F
MEDICINE HAT   CLEAR     41  36  81 CALM      30.08S
$$

REGIONAL REPORTS...SASKATCHEWAN

CITY           SKY/WX    TMP DP  RH WIND       PRES   REMARKS
SWIFT CURRENT    N/A     41  34  75 VRB2      30.06F
REGINA         PTCLDY    39  37  93 NW5       30.06F
SASKATOON      CLOUDY    45  39  81 CALM      30.09S
$$




USA.gov is the U.S. government's official web portal to all federal, state and local government web resources and services.